STARLINK-5906 (55962 NORAD) Tracking and Keplerian Element Data

This shows tracking and keplerian element data for the satellite.

Feedback or suggestion? Click here.




ElementValue
Catalog55962
NameSTARLINK-5906
Epoch Orbit839
Epoch Day126.86594634
Epoch Year2023
RAAN40.2
Inclination70.0003
Eccentricity0.0003738
Argument of Perigee264.5877
Mean Anonmoly95.4892
Mean Motion15.69940263
Decay Rate3.297E-05
L11 55962U 23037BA 23126.86594634 .00003297 00000+0 29157-4 0 9999
L22 55962 70.0003 40.2000 0003738 264.5877 95.4892 15.69940263 8397



Live tracking and technical data element details for STARLINK-5906 (NORAD 55962). STARLINK-5906 can be tracked NOW for your location showing map with azimuth and elevation plus other details from your city location.







IsCatalogInMostPopularTable: catalog: 55962, numindb: 9
Update: records affected: 1



GetName: 55962 STARLINK-5906

Hit Count: updated at: Tue, 06 Jun 2023 02:51:12 GMT